Location: Stoke Bliss
(52.2667°N, 2.5167°W)
Time: 18:07:07
(UTC+00:00)

X-37B - Pass Details

Date: 09 December 2021
Orbit: 334 x 337 km, 45.0° (Epoch: 11 January)

Event Time Altitude Azimuth Distance (km) Brightness Sun altitude
Rises 17:53:00 0° 219° (SW) 2,098 5.2 -16.5°
Reaches altitude 10° 17:55:51 10° 187° (S) 1,264 3.4 -16.9°
Maximum altitude 17:57:05 12° 161° (SSE) 1,149 2.9 -17.1°
Enters shadow 17:57:14 12° 158° (SSE) 1,151 2.9 -17.1°
